Flag for Austria Weather past 2 weeks in Lustenau, Vorarlberg, Austria

Now
30 °F

Passing clouds.


Feels Like: 30 °F
Forecast: 27 / 48 °F
Wind: 1 mph from North

Location: Saint Gallen-Altenrhein

Current Time: Mar 6, 2015 at 5:17:30 AM

Latest Report: Mar 6, 2015 at 4:20 AM


Visibility: N/A

Pressure: 30.60 "Hg

Humidity: 80%

Dew point: 25 °F

Location of LustenauLocation

Historic Weather in Lustenau — Graph

°F

Lustenau temperature yesterday

Maximum temperature yesterday: 39 °F (at 1:20 PM)
Minimum temperature yesterday: 34 °F (at 12:20 AM)
Average temperature yesterday: 36 °F

Past Weeks' High & Low Weather Summary

 TemperatureHumidityPressure
High54 °F (Mar 2, 3:50 AM)100% (Feb 20, 4:20 AM)30.60 "Hg (Feb 20, 4:20 AM)
Low25 °F (Feb 20, 2:50 AM)37% (Mar 3, 11:20 AM)29.50 "Hg (Feb 21, 12:50 PM)
Average37 °F82%30.03 "Hg
* Reported Feb 19 3:20 AM — Mar 6 3:50 AM, Lustenau, Weather by CustomWeather, © 2015

Note: Actual official high and low records may vary slightly from our data, if they occured in-between our weather recording intervals... More about our weather records

Advertising

Lustenau weather history for previous 24 hours

 ConditionsComfort  
Time TempWeatherWind HumidityBarometerVisibility
3:50 AM
Fri, Mar 6
30 °FPassing clouds.1 mph86%30.60 "HgN/A
3:20 AM30 °FPassing clouds.6 mph80%30.60 "HgN/A
2:50 AM32 °FChilly.2 mph80%30.60 "HgN/A
2:20 AM30 °FChilly.3 mph86%30.60 "HgN/A
1:50 AM30 °FPassing clouds.3 mph86%30.60 "HgN/A
1:20 AM32 °FChilly.2 mph80%30.60 "HgN/A
12:50 AM34 °FPassing clouds.1 mph75%30.60 "HgN/A
12:20 AM34 °FMostly cloudy.3 mph75%30.60 "HgN/A
11:50 PM
Thu, Mar 5
34 °FPartly cloudy.2 mph81%30.60 "HgN/A
11:20 PM34 °FPassing clouds.5 mph81%30.60 "HgN/A
10:50 PM34 °FMostly cloudy.5 mph81%30.60 "HgN/A
10:20 PM34 °FPassing clouds.5 mph81%30.60 "HgN/A
9:50 PM34 °FPassing clouds.3 mph81%30.60 "HgN/A
9:20 PM36 °FPassing clouds.3 mph65%30.60 "HgN/A
8:50 PM36 °FPassing clouds.3 mph65%30.60 "HgN/A
8:20 PM36 °FPassing clouds.2 mph65%30.60 "HgN/A
7:50 PM36 °FPassing clouds.5 mph70%30.60 "HgN/A
7:20 PM37 °FPassing clouds.3 mph65%30.60 "HgN/A
6:50 PM37 °FPassing clouds.3 mph65%30.57 "HgN/A
6:20 PM39 °FPassing clouds.2 mph56%30.57 "HgN/A
5:50 PM39 °FPartly sunny.3 mph61%30.57 "HgN/A
5:20 PM39 °FPartly sunny.3 mph61%30.57 "HgN/A
4:50 PM39 °FPartly sunny.5 mph61%30.54 "HgN/A
4:20 PM39 °FPartly sunny.5 mph61%30.54 "HgN/A
3:50 PM39 °FPartly sunny.5 mph61%30.54 "HgN/A
3:20 PM39 °FPartly sunny.6 mph56%30.54 "HgN/A
2:50 PM39 °FPartly sunny.6 mph56%30.54 "HgN/A
2:20 PM39 °FPartly sunny.6 mph56%30.54 "HgN/A
1:50 PM39 °FPartly sunny.9 mph56%30.54 "HgN/A
1:20 PM39 °FPartly sunny.7 mph70%30.54 "HgN/A
12:50 PM37 °FPartly sunny.9 mph70%30.54 "HgN/A
12:20 PM37 °FSnow flurries. Broken clouds.10 mph70%30.57 "HgN/A
11:50 AM37 °FSprinkles. Broken clouds.5 mph75%30.54 "HgN/A
11:20 AM37 °FBroken clouds.6 mph70%30.54 "HgN/A
10:50 AM37 °FBroken clouds.8 mph75%30.54 "HgN/A
10:20 AM37 °FBroken clouds.8 mph70%30.54 "HgN/A
9:50 AM36 °FBroken clouds.9 mph81%30.54 "HgN/A
9:20 AM36 °FBroken clouds.7 mph81%30.54 "HgN/A
8:50 AM36 °FBroken clouds.10 mph81%30.51 "HgN/A
8:20 AM36 °FBroken clouds.8 mph81%30.51 "HgN/A
7:50 AM36 °FMostly cloudy.6 mph81%30.51 "HgN/A
7:20 AM34 °FPartly sunny.6 mph93%30.51 "HgN/A
6:50 AM34 °FLight snow. Partly cloudy.9 mph93%30.51 "HgN/A
6:20 AM34 °FLight snow. Partly cloudy.13 mph93%30.51 "HgN/A
5:20 AM36 °FPartly cloudy.6 mph81%30.48 "HgN/A
Weather by CustomWeather, © 2015

See weather overviewHow to use our weather pages